Theta_e
343 343 343 344 344 345 346 348 350 351 355 358 361 358 358 354 357 354 355 358 358 359 358 358 358 355 357 358 358 352 351 346 344 337 338 343 342 342 344 342 340 337 339
343 344 345 345 346 348 350 351 352 354 357 359 358 356 355 356 356 357 356 356 355 354 353 352 352 354 354 355 358 356 351 349 345 343 344 343 344 346 342 339 343 344 344
346 346 348 349 351 352 353 355 356 358 358 357 356 356 354 349 344 338 335 334 334 341 347 348 349 350 353 354 354 356 355 350 349 347 345 346 347 343 339 342 343 345 347
356 354 356 357 357 358 358 359 358 356 353 352 347 337 327 324 323 323 323 324 325 326 329 334 344 352 351 353 355 355 357 353 350 348 348 348 344 339 340 343 342 345 345
356 357 358 358 358 356 353 348 340 332 327 323 321 321 321 322 323 323 324 324 324 325 328 331 331 341 351 352 354 354 354 353 348 346 347 344 338 340 342 342 342 343 343
340 341 339 337 332 326 324 321 320 320 320 320 321 322 322 323 324 325 326 327 327 326 326 328 337 336 336 345 352 352 352 346 345 342 343 338 337 342 342 340 342 343 341
328 325 323 321 320 319 319 319 319 319 319 320 321 322 323 324 325 327 328 328 329 329 328 329 338 338 334 342 350 350 349 345 342 341 337 336 342 340 342 341 341 342 341
322 321 320 319 319 319 318 318 318 318 319 320 321 322 324 327 329 330 331 330 329 330 332 331 335 337 336 346 350 348 346 343 341 337 338 341 341 340 341 342 341 340 339
320 319 319 319 318 317 318 318 319 319 320 323 325 329 334 333 332 331 332 334 336 334 333 334 337 339 340 345 347 347 343 340 337 335 339 340 338 338 339 339 339 339 336
319 319 318 318 318 318 318 318 320 321 323 326 328 330 330 331 332 334 335 336 337 340 340 342 341 343 344 343 346 344 340 335 333 334 338 339 338 337 338 338 337 336 334
319 318 318 318 318 318 320 320 321 322 323 327 329 330 329 330 331 333 334 336 337 337 336 336 338 340 342 341 341 341 336 332 334 336 339 338 337 336 336 335 332 329 330
318 318 317 318 318 318 318 319 320 321 322 324 325 326 326 328 329 330 332 334 334 334 335 334 335 337 338 340 341 340 337 336 337 338 337 336 334 330 326 324 325 326 327
317 317 316 315 316 315 315 315 316 317 319 320 320 321 322 323 323 327 328 329 330 331 332 335 334 336 335 338 340 338 336 337 336 334 334 330 326 326 326 326 325 324 324
316 314 314 314 314 313 313 315 316 316 317 318 318 319 319 319 319 320 322 325 327 328 328 330 329 331 334 337 333 331 331 332 332 329 325 324 321 319 319 316 314 316 318
315 314 314 315 314 313 314 314 315 315 316 317 318 319 318 318 319 320 318 320 322 324 325 327 328 328 326 326 329 328 326 325 325 323 322 321 320 320 318 317 317 316 315
315 315 315 316 316 315 313 314 314 315 315 316 316 316 316 317 317 318 320 317 318 319 320 321 322 325 326 326 325 324 323 320 322 323 324 323 321 319 317 318 317 317 316
317 317 316 316 316 317 316 314 313 315 315 316 315 314 316 316 317 317 319 319 317 319 319 318 319 319 320 322 322 323 324 324 325 325 325 322 319 319 318 317 317 317 317
318 318 317 317 317 317 318 318 316 314 315 315 314 313 314 316 317 317 317 318 320 318 317 317 319 318 317 318 318 317 318 320 319 320 319 317 316 316 318 317 317 316 316
319 319 318 318 319 319 319 319 319 319 317 315 315 316 316 317 317 318 317 317 317 318 319 319 319 319 318 318 317 317 318 316 314 314 317 318 318 318 318 317 316 317 316
320 320 320 320 320 320 320 320 319 319 319 319 319 318 317 318 319 319 318 317 317 317 316 317 318 317 317 316 318 317 317 317 317 317 317 317 317 316 314 315 316 316 316
320 320 321 321 321 321 321 321 320 319 319 319 319 319 319 319 319 319 319 319 319 318 319 318 316 317 317 317 317 315 314 314 315 315 316 315 314 314 315 315 315 315 315
322 322 322 323 322 322 320 319 319 319 318 318 317 318 319 319 319 319 319 319 319 318 319 319 318 317 317 318 318 317 315 315 315 315 315 315 314 314 315 314 314 314 313
323 323 323 324 323 322 320 320 318 317 318 318 316 317 318 318 318 319 318 319 319 318 319 319 319 318 318 318 318 319 318 318 318 317 316 316 316 315 315 315 314 314 314
325 324 324 323 322 322 322 320 319 318 318 319 319 319 319 319 318 319 318 318 318 319 319 319 319 319 319 318 318 317 318 317 317 317 317 315 315 315 316 316 316 316 316
326 325 324 321 322 323 321 318 318 318 318 318 319 320 320 319 320 320 319 319 319 319 318 318 319 319 319 318 318 318 318 318 318 318 318 316 317 316 316 316 316 314 312
326 325 325 323 321 320 321 320 318 319 319 319 320 320 320 320 319 319 319 319 318 318 318 318 318 318 319 318 318 319 318 318 318 318 318 318 317 316 315 313 312 310 305
Wind_Speed
28 26 27 28 29 28 27 26 27 28 27 26 28 30 31 29 28 28 31 32 33 32 31 29 29 26 29 29 28 30 37 35 36 34 35 31 28 31 34 36 38 34 33
23 24 23 23 23 23 24 26 27 27 27 29 30 29 28 29 30 30 31 30 30 32 31 29 31 28 28 31 31 32 37 35 35 34 32 31 32 33 36 32 29 27 26
15 17 19 19 19 21 22 23 24 25 29 29 30 31 31 32 33 32 32 33 33 33 33 33 34 30 32 31 31 32 36 35 31 29 33 30 33 33 27 23 20 20 20
8 12 14 15 15 15 15 19 24 26 27 28 31 33 33 34 34 35 35 34 34 35 36 36 35 34 33 33 33 32 32 35 31 30 32 30 29 28 22 19 18 15 17
5 9 10 11 13 15 18 21 23 25 28 30 31 31 31 31 31 32 33 34 36 38 37 37 37 37 34 32 32 33 32 36 32 28 28 26 26 23 17 15 11 14 10
7 10 10 11 13 15 18 20 22 23 25 26 27 29 30 30 31 31 33 34 35 37 39 38 37 33 34 33 30 33 33 32 31 26 25 25 22 16 11 7 15 12 4
11 13 12 10 12 15 17 19 21 23 26 27 27 28 29 29 28 29 30 32 35 35 36 36 35 32 29 27 27 28 31 25 21 17 18 20 16 11 10 10 10 8 9
8 10 11 12 13 16 19 22 24 25 27 27 28 28 28 26 24 25 26 27 30 31 31 31 30 29 25 23 24 26 24 16 14 13 16 16 12 11 10 10 12 11 12
7 9 10 14 17 20 21 22 23 23 24 24 24 23 23 23 23 23 25 24 25 26 23 22 25 24 21 21 23 25 21 17 15 16 19 17 13 12 12 13 14 13 15
7 8 12 15 17 18 19 20 20 22 21 20 19 19 21 23 23 22 21 22 23 22 20 20 20 18 18 19 23 23 24 22 18 18 23 19 16 15 15 13 11 14 14
6 9 11 12 13 15 16 17 19 20 19 16 15 16 20 22 22 21 21 19 19 20 19 18 14 14 16 16 20 24 24 23 25 23 24 20 19 16 15 13 13 10 13
4 5 8 10 11 12 13 14 14 15 17 17 17 18 18 19 21 22 20 17 16 17 15 17 16 14 15 15 19 23 23 24 25 25 24 22 20 17 15 14 14 13 12
1 4 6 7 10 12 15 16 18 19 19 22 26 28 26 23 25 21 22 20 19 17 16 17 16 12 14 12 26 25 27 29 29 27 26 24 20 18 16 14 12 10 10
5 8 10 12 13 15 18 21 21 22 24 24 26 27 29 33 32 31 26 21 19 15 15 15 17 16 11 12 26 24 28 32 33 31 27 24 23 21 16 12 14 12 10
8 8 9 10 13 16 19 23 24 21 20 20 22 21 23 27 30 28 28 25 19 17 12 12 10 12 16 7 7 10 9 15 18 24 23 24 21 17 16 14 13 12 11
7 7 9 11 14 15 17 21 24 22 19 20 21 22 22 20 23 24 23 20 19 16 15 19 19 20 18 22 22 23 20 23 21 23 23 20 17 13 14 13 12 11 9
7 7 6 6 8 11 12 15 17 20 22 22 21 22 25 25 22 25 20 18 14 13 19 21 23 23 21 18 18 23 23 16 15 6 13 17 13 10 9 11 10 9 9
7 5 3 3 5 7 10 11 12 14 15 15 16 19 19 22 24 24 22 17 18 14 13 14 16 13 13 16 17 16 14 10 8 3 10 12 12 9 5 5 7 7 7
9 6 4 2 3 5 6 9 11 11 11 12 13 13 14 17 19 20 21 18 18 15 15 10 9 12 14 15 15 13 9 11 13 12 8 8 9 6 6 3 5 5 4
11 9 7 6 4 5 7 8 8 10 11 12 12 12 13 14 17 15 16 16 16 17 16 13 13 13 11 12 9 7 8 10 10 9 9 9 9 7 5 3 3 1 2
13 12 10 9 8 7 10 10 10 9 9 9 8 9 14 15 15 15 14 12 11 10 9 11 8 5 3 2 5 5 7 8 7 7 6 6 4 4 3 4 3 4 5
15 13 12 11 9 8 8 8 11 11 8 8 7 7 9 12 14 12 13 12 10 9 7 8 6 3 1 2 2 3 3 2 3 2 1 2 3 3 2 3 4 5 5
21 17 14 13 11 9 8 8 9 10 8 8 8 9 9 12 13 12 11 10 10 7 6 7 8 6 5 4 2 2 1 2 1 2 2 5 7 9 11 12 11 11 10
24 23 20 12 13 11 11 8 9 8 6 6 8 10 10 11 10 10 10 9 8 7 7 7 7 5 4 5 5 1 2 2 3 3 2 2 4 6 9 10 10 12 14
25 25 21 16 15 12 9 6 6 5 7 9 9 10 12 12 12 12 11 10 10 10 7 6 7 5 6 4 2 2 3 4 4 8 8 8 9 10 10 11 13 16 20
21 25 18 16 14 13 11 10 9 9 10 10 10 12 10 10 10 11 11 10 9 9 8 7 7 7 7 7 7 7 6 5 7 8 8 10 13 13 13 15 18 22 24
Wind_Direction
240 249 250 253 255 257 260 264 268 270 274 280 281 284 279 279 279 275 276 277 280 280 280 283 284 281 275 276 273 258 259 247 253 270 277 281 280 285 287 285 282 274 261
228 241 249 253 257 262 260 260 261 265 271 277 281 284 281 278 279 280 279 279 279 280 282 279 278 279 276 273 274 265 262 252 251 262 273 276 282 284 287 286 281 270 262
228 237 243 246 252 253 251 252 257 266 273 275 279 283 286 283 285 285 284 282 279 277 277 278 280 276 271 270 269 266 265 259 262 259 269 275 280 287 289 290 284 271 265
238 232 233 236 240 245 253 261 268 275 283 285 286 287 288 289 289 288 288 287 284 280 277 274 273 270 268 268 268 264 261 255 256 254 263 269 278 282 286 292 293 279 261
215 228 234 239 249 263 273 280 288 291 290 289 290 291 291 292 294 295 294 291 285 281 279 277 273 268 268 271 268 263 258 252 260 253 259 267 271 276 276 288 274 241 212
261 249 255 265 276 285 289 292 293 295 296 298 299 300 300 301 300 298 296 294 290 283 280 277 276 275 270 270 268 268 259 261 257 247 262 255 265 258 258 276 231 206 185
262 271 279 297 309 304 304 308 310 309 309 307 305 305 304 305 302 298 295 293 291 287 281 276 276 278 278 271 264 263 259 258 245 244 239 252 246 218 224 224 227 224 210
282 293 314 318 316 319 319 319 317 317 315 316 314 315 314 313 311 308 306 300 296 290 286 282 278 279 276 272 259 251 246 235 231 224 236 229 216 212 207 204 205 197 178
283 305 319 330 330 329 327 327 326 322 322 322 326 330 331 329 326 316 314 313 313 306 297 289 282 276 270 265 251 244 235 211 216 237 226 218 216 206 201 197 192 192 170
301 317 330 333 337 334 334 334 335 337 337 336 344 344 342 341 339 337 325 320 320 312 303 296 283 273 263 261 240 235 205 213 220 235 222 212 205 201 197 188 192 190 180
299 330 341 339 337 342 349 349 350 350 345 341 343 344 340 337 336 343 336 335 334 336 325 319 312 294 265 262 255 223 226 223 220 206 205 196 188 190 187 184 180 190 190
351 340 346 351 355 358 358 354 354 356 10 15 13 10 351 355 351 346 347 340 332 334 330 332 302 290 287 260 250 234 214 213 199 187 184 179 176 170 166 166 172 174 180
43 25 26 31 44 47 39 33 30 25 23 29 27 26 21 18 26 18 11 1 353 353 347 343 346 309 288 251 230 212 205 201 189 180 176 167 162 158 156 159 164 172 172
101 89 76 75 64 52 39 37 38 37 35 32 30 25 21 21 22 20 14 8 7 4 2 358 356 3 341 271 217 198 192 191 181 168 165 156 149 140 131 134 142 147 163
118 98 80 65 63 55 51 44 39 37 36 35 28 20 13 19 19 13 10 14 17 18 27 32 29 49 52 78 167 170 151 128 141 146 150 147 141 133 123 126 127 129 131
127 106 98 78 65 56 55 49 45 43 40 40 38 32 28 27 20 12 19 20 23 30 52 62 63 67 84 92 102 110 118 131 150 146 157 153 141 133 124 134 130 131 139
130 124 111 82 62 52 51 49 45 44 51 56 49 40 35 31 27 24 17 22 27 35 57 61 63 67 74 83 94 109 128 135 165 172 134 134 128 130 116 125 131 135 145
164 153 141 85 47 40 33 33 36 36 39 38 34 27 31 28 24 25 25 21 40 46 53 60 64 62 69 77 82 82 90 100 101 145 124 108 81 84 121 134 119 124 149
201 204 229 272 346 6 10 18 19 16 14 14 19 21 22 26 19 20 19 32 29 35 48 74 81 82 85 88 83 77 91 105 109 101 94 128 149 179 176 138 141 151 161
211 221 234 260 284 319 333 344 350 350 355 357 357 355 4 9 10 16 20 29 34 38 43 49 78 83 98 94 69 78 99 121 132 134 144 162 171 167 163 160 157 182 259
212 230 246 258 267 302 321 331 334 336 333 346 345 349 349 3 11 14 12 6 358 359 21 34 74 66 20 69 67 94 97 107 127 143 168 160 167 161 181 192 200 223 228
227 234 246 256 270 279 296 311 324 332 332 326 326 338 347 355 356 355 352 358 6 3 358 8 62 87 139 331 198 166 164 135 122 143 150 182 180 186 222 255 264 264 267
238 240 244 252 264 274 277 296 298 319 331 331 319 326 347 353 356 356 360 357 2 11 25 30 20 20 25 15 278 244 287 310 318 326 300 277 278 279 282 276 272 275 274
231 239 245 243 254 264 270 271 289 301 305 321 316 315 324 347 5 3 354 354 354 355 343 341 354 5 15 0 10 43 26 7 233 225 247 287 311 298 283 281 280 280 280
227 230 233 236 241 254 264 274 261 281 298 318 321 333 323 312 336 328 332 337 343 337 323 336 343 328 349 334 320 341 293 286 279 284 292 273 295 304 294 292 293 296 299
234 234 231 233 244 249 252 246 260 287 296 305 317 329 355 347 330 331 325 323 318 331 325 321 337 330 318 315 316 293 285 275 281 298 295 295 300 305 300 300 304 308 307